1497765600.21,32801,14.75,74008.5,1.91,0.37,0.43,0,*7F
1497765601.42,32802,14.75,74006.8,1.91,0.33,0.37,0,*7B
1497765602.61,32803,14.75,74000.0,1.91,0.33,0.43,0,*79
1497765603.83,32804,14.75,74006.8,1.91,0.33,0.37,0,*7D
1497765605.02,32805,14.75,73992.5,1.91,0.37,0.43,0,*7B
1497765606.21,32806,14.75,73994.5,1.91,0.37,0.43,0,*78
1497765607.4,32807,14.75,73984.3,1.91,0.37,0.43,0,*79
1497765608.63,32808,14.75,74006.0,1.89,0.37,0.37,0,*7C
1497765609.83,32809,14.75,74018.8,1.91,0.37,0.43,0,*77
1497765611.04,32810,14.75,74006.5,1.91,0.29,0.37,0,*73
1497765612.26,32811,14.75,74018.5,1.91,0.29,0.37,0,*72
1497765613.47,32812,14.81,74000.0,1.91,0.33,0.37,0,*7A
1497765614.66,32813,14.81,74010.0,1.91,0.33,0.43,0,*78
1497765615.88,32814,14.75,74006.3,1.91,0.33,0.37,0,*7C
1497765617.07,32815,14.75,74010.8,1.91,0.37,0.43,0,*7A
1497765618.29,32816,14.75,74004.3,1.91,0.29,0.37,0,*75
1497765619.53,32817,14.75,74002.5,1.93,0.41,0.47,0,*7F
1497765620.74,32818,14.75,74026.3,1.91,0.29,0.33,0,*7F
1497765621.96,32819,14.75,74020.0,1.91,0.33,0.37,0,*71
1497765623.15,32820,14.75,74006.5,1.91,0.33,0.43,0,*78
1497765624.36,32821,14.81,74010.5,1.91,0.37,0.37,0,*7E
1497765625.57,32822,14.81,73980.3,1.91,0.33,0.37,0,*79
1497765626.77,32823,14.75,73990.0,1.91,0.37,0.43,0,*7F
1497765628.0,32824,14.81,73986.3,1.89,0.37,0.37,0,*72
1497765629.16,32825,14.75,73992.3,1.91,0.43,0.43,0,*7A
1497765630.35,32826,14.81,74004.8,1.89,0.43,0.43,0,*70
1497765631.51,32827,14.75,73986.0,1.91,0.43,0.43,0,*78
1497765632.72,32828,14.75,73984.0,1.89,0.43,0.47,0,*7A
1497765633.93,32829,14.75,73998.8,1.89,0.43,0.47,0,*7B
1497765635.12,32830,14.75,73994.8,1.91,0.43,0.47,0,*7A
1497765636.33,32831,14.75,73988.5,1.89,0.43,0.47,0,*72
1497765637.52,32832,14.75,74020.5,1.91,0.43,0.47,0,*78
1497765638.74,32833,14.75,74012.3,1.91,0.37,0.37,0,*7D
1497765639.95,32834,14.75,74012.0,1.91,0.29,0.37,0,*75
1497765641.17,32835,14.75,74004.0,1.89,0.29,0.43,0,*7E
1497765642.41,32836,14.75,73996.3,1.93,0.41,0.47,0,*7C
1497765643.58,32837,14.75,74006.8,1.91,0.43,0.43,0,*79
1497765644.76,32838,14.75,74010.8,1.91,0.43,0.47,0,*72
1497765645.95,32839,14.75,74006.5,1.91,0.43,0.47,0,*73
1497765647.14,32840,14.75,74002.8,1.91,0.43,0.47,0,*7D
1497765648.33,32841,14.75,73976.8,1.91,0.43,0.47,0,*7C
1497765649.54,32842,14.75,73996.0,1.89,0.43,0.47,0,*76
1497765650.74,32843,14.75,74010.3,1.91,0.37,0.43,0,*79
1497765651.93,32844,14.75,74012.0,1.91,0.37,0.43,0,*7E
1497765653.17,32845,14.75,74010.5,1.93,0.47,0.47,0,*7E
1497765654.36,32846,14.75,74004.5,1.91,0.43,0.47,0,*7B
1497765655.55,32847,14.75,74014.8,1.91,0.43,0.47,0,*7A
1497765656.77,32848,14.75,74008.3,1.91,0.37,0.47,0,*76
1497765657.98,32849,14.75,74016.3,1.89,0.43,0.47,0,*7D
1497765659.17,32850,14.75,74018.8,1.91,0.43,0.47,0,*7C
1497765660.38,32851,14.75,74020.3,1.89,0.43,0.55,0,*77
1497765661.57,32852,14.75,74022.3,1.91,0.43,0.55,0,*7D
1497765662.76,32853,14.75,74008.0,1.91,0.43,0.47,0,*7F
1497765663.95,32854,14.81,74000.8,1.91,0.43,0.47,0,*78
1497765665.17,32855,14.75,74010.3,1.91,0.47,0.47,0,*7D
1497765666.42,32856,14.75,74008.0,1.93,0.51,0.51,0,*7C
1497765667.64,32857,14.75,74008.5,1.91,0.47,0.47,0,*7F
1497765668.86,32858,14.75,74012.5,1.91,0.47,0.47,0,*70
1497765670.08,32859,14.75,74014.5,1.91,0.47,0.47,0,*71
1497765671.33,32860,14.75,74020.8,1.93,0.51,0.59,0,*71
1497765672.57,32861,14.75,74024.5,1.93,0.51,0.59,0,*70
1497765673.82,32862,14.75,74018.3,1.93,0.47,0.51,0,*7C
1497765675.06,32863,14.75,74014.3,1.93,0.41,0.51,0,*7B
1497765676.25,32864,14.75,74020.8,1.91,0.43,0.55,0,*78
1497765677.44,32865,14.75,74016.5,1.91,0.43,0.55,0,*79
1497765678.63,32866,14.81,74018.8,1.91,0.43,0.47,0,*79
1497765679.85,32867,14.75,74024.8,1.91,0.47,0.47,0,*7C
1497765681.08,32868,14.75,74020.5,1.91,0.47,0.55,0,*70
1497765682.3,32869,14.75,74016.3,1.91,0.55,0.47,0,*71
1497765683.54,32870,14.75,74024.0,1.93,0.59,0.59,0,*78
1497765684.76,32871,14.75,74024.5,1.95,0.51,0.59,0,*77
1497765686.01,32872,14.75,74014.8,1.93,0.51,0.59,0,*72
1497765687.25,32873,14.75,74022.8,1.93,0.51,0.59,0,*73
1497765688.5,32874,14.75,74022.3,1.93,0.51,0.59,0,*74
1497765689.74,32875,14.75,74008.5,1.93,0.51,0.51,0,*7D
1497765690.99,32876,14.81,74020.3,1.93,0.51,0.59,0,*76
1497765692.23,32877,14.75,74016.0,1.93,0.51,0.59,0,*77
1497765693.48,32878,14.75,74020.0,1.93,0.51,0.59,0,*78
1497765694.7,32879,14.75,74018.5,1.95,0.51,0.59,0,*7F
1497765695.91,32880,14.75,74016.5,1.95,0.59,0.51,0,*79
1497765697.13,32881,14.75,74028.8,1.95,0.51,0.59,0,*78
1497765698.35,32882,14.75,74024.0,1.95,0.51,0.51,0,*73
1497765699.6,32883,14.75,74024.0,1.93,0.47,0.59,0,*7B
1497765700.82,32884,14.75,74010.0,1.95,0.51,0.51,0,*75
1497765702.06,32885,14.75,74006.8,1.93,0.51,0.59,0,*7A
1497765703.31,32886,14.75,74010.8,1.93,0.51,0.59,0,*79
1497765704.55,32887,14.75,74010.0,1.93,0.51,0.59,0,*78
1497765705.79,32888,14.75,74014.5,1.93,0.59,0.59,0,*7F
1497765707.04,32889,14.75,74024.3,1.93,0.51,0.59,0,*76
1497765708.28,32890,14.75,74032.8,1.93,0.59,0.63,0,*7F
1497765709.49,32891,14.75,74018.3,1.95,0.59,0.63,0,*78
1497765710.71,32892,14.75,74036.8,1.95,0.51,0.63,0,*73
1497765711.92,32893,14.75,74040.3,1.95,0.59,0.63,0,*7A
1497765713.16,32894,14.75,74028.5,1.93,0.51,0.51,0,*72
1497765714.38,32895,14.75,74016.8,1.95,0.47,0.59,0,*7A
1497765715.6,32896,14.75,74012.5,1.95,0.59,0.63,0,*7F
1497765716.82,32897,14.75,74026.0,1.95,0.51,0.59,0,*7F
1497765718.04,32898,14.75,74022.5,1.95,0.51,0.59,0,*70
1497765719.25,32899,14.75,74012.8,1.95,0.59,0.59,0,*79
1497765720.47,32900,14.75,74016.0,1.95,0.59,0.63,0,*71
1497765721.68,32901,14.75,74014.8,1.95,0.51,0.63,0,*78
1497765722.9,32902,14.75,74014.5,1.95,0.51,0.63,0,*7B
1497765724.11,32903,14.75,74014.3,1.95,0.51,0.71,0,*79
1497765725.33,32904,14.75,74012.8,1.95,0.59,0.63,0,*75
1497765726.56,32905,14.75,74014.3,1.97,0.63,0.75,0,*78
1497765727.8,32906,14.75,74010.3,1.97,0.63,0.75,0,*7B
1497765729.03,32907,14.75,74012.0,1.97,0.63,0.67,0,*79
1497765730.26,32908,14.75,74016.3,1.97,0.63,0.67,0,*76
1497765731.5,32909,14.75,74002.0,1.97,0.63,0.67,0,*77
1497765732.73,32910,14.75,74008.0,1.97,0.63,0.63,0,*7B
1497765733.97,32911,14.75,74004.3,1.97,0.55,0.75,0,*78
1497765735.21,32912,14.75,74010.8,1.97,0.63,0.75,0,*7E
1497765736.45,32913,14.75,74026.3,1.97,0.63,0.75,0,*7F
1497765737.66,32914,14.75,74020.5,1.99,0.67,0.71,0,*76
1497765738.87,32915,14.75,74008.5,1.99,0.59,0.71,0,*7A
1497765740.11,32916,14.75,74012.8,1.97,0.55,0.71,0,*7B
1497765741.32,32917,14.75,74016.3,1.99,0.67,0.71,0,*75
1497765742.56,32918,14.75,74018.8,1.97,0.55,0.67,0,*72
1497765743.79,32919,14.75,74032.3,1.97,0.63,0.67,0,*76
1497765745.0,32920,14.75,74026.0,1.99,0.59,0.67,0,*7B
1497765746.25,32921,14.75,74018.0,1.97,0.55,0.55,0,*79
1497765747.46,32922,14.75,74026.0,1.99,0.59,0.67,0,*79
1497765748.67,32923,14.75,74032.3,1.99,0.55,0.67,0,*74
1497765749.91,32924,14.75,74036.5,1.97,0.51,0.67,0,*79
1497765751.11,32925,14.75,74030.3,1.99,0.67,0.71,0,*74
1497765752.32,32926,14.75,74038.3,1.99,0.59,0.67,0,*7D
1497765753.53,32927,14.75,74036.0,1.99,0.67,0.71,0,*76
1497765754.74,32928,14.75,74040.0,1.99,0.67,0.67,0,*7E
1497765755.97,32929,14.75,74034.0,2.01,0.67,0.71,0,*7A
1497765757.18,32930,14.75,74036.3,1.99,0.59,0.71,0,*7D
1497765758.39,32931,14.75,74038.3,1.99,0.59,0.67,0,*7B
1497765759.6,32932,14.75,74040.5,1.99,0.59,0.67,0,*78
1497765760.84,32933,14.75,74042.8,2.01,0.59,0.67,0,*7B
1497765762.07,32934,14.75,74034.5,2.01,0.59,0.67,0,*7C
1497765763.28,32935,14.75,74040.3,1.99,0.59,0.67,0,*7F
1497765764.52,32936,14.75,74042.0,2.01,0.59,0.67,0,*7E
1497765765.73,32937,14.75,74044.0,1.99,0.59,0.67,0,*7D
1497765766.96,32938,14.75,74050.8,2.01,0.59,0.67,0,*70
1497765768.21,32939,14.75,74046.0,2.01,0.59,0.59,0,*7C
1497765769.45,32940,14.75,74044.8,2.01,0.59,0.59,0,*72
1497765770.68,32941,14.75,74046.0,2.01,0.59,0.67,0,*7E
1497765771.92,32942,14.75,74048.3,2.01,0.59,0.71,0,*7A
1497765773.14,32943,14.75,74052.0,1.99,0.59,0.59,0,*73
1497765774.39,32944,14.75,74052.0,2.01,0.55,0.59,0,*7A
1497765775.63,32945,14.75,74054.3,2.01,0.59,0.59,0,*77
1497765776.87,32946,14.75,74054.0,2.01,0.59,0.59,0,*74
1497765778.12,32947,14.75,74052.3,2.01,0.47,0.59,0,*7A
1497765779.36,32948,14.75,74060.8,2.01,0.47,0.55,0,*79
1497765780.58,32949,14.75,74058.3,2.03,0.59,0.59,0,*79
1497765781.83,32950,14.75,74054.0,2.01,0.55,0.55,0,*73
1497765783.08,32951,14.75,74052.3,2.01,0.55,0.55,0,*72
1497765784.32,32952,14.75,74050.8,2.01,0.47,0.55,0,*72
1497765785.51,32953,14.75,74058.8,1.99,0.43,0.55,0,*75
1497765786.73,32954,14.75,74054.0,2.03,0.51,0.59,0,*7D
1497765787.98,32955,14.75,74054.3,2.01,0.47,0.55,0,*75
1497765789.22,32956,14.75,74048.0,2.01,0.47,0.59,0,*7A
1497765790.47,32957,14.75,74052.3,2.01,0.55,0.59,0,*78
1497765791.72,32958,14.75,74048.8,2.01,0.55,0.59,0,*77
1497765792.96,32959,14.75,74048.5,2.01,0.55,0.67,0,*7B
1497765794.21,32960,14.75,74050.3,2.01,0.55,0.59,0,*7C
1497765795.46,32961,14.75,74044.0,2.01,0.55,0.59,0,*7D
1497765796.71,32962,14.75,74040.3,2.01,0.55,0.59,0,*7E
1497765797.93,32963,14.75,74042.8,2.03,0.51,0.59,0,*79
1497765799.18,32964,14.75,74052.0,2.01,0.55,0.55,0,*74
1497765800.42,32965,14.75,74040.3,2.01,0.47,0.55,0,*76
1497765801.67,32966,14.75,74040.0,2.01,0.55,0.55,0,*76
1497765802.89,32967,14.75,74054.3,1.99,0.47,0.47,0,*75
1497765804.08,32968,14.75,74054.5,1.99,0.47,0.43,0,*7E
1497765805.24,32969,14.75,74056.0,1.99,0.43,0.43,0,*7B
1497765806.43,32970,14.75,74054.8,1.99,0.43,0.55,0,*74
1497765807.64,32971,14.75,74052.5,2.01,0.43,0.55,0,*77
1497765808.86,32972,14.75,74060.0,2.01,0.43,0.55,0,*74
1497765810.1,32973,14.75,74068.3,2.01,0.47,0.55,0,*71
1497765811.35,32974,14.75,74062.8,2.01,0.47,0.55,0,*76
1497765812.57,32975,14.75,74064.3,1.99,0.47,0.55,0,*75
1497765813.79,32976,14.75,74068.3,1.99,0.47,0.55,0,*76
1497765815.0,32977,14.75,74068.8,1.97,0.43,0.51,0,*79
1497765816.22,32978,14.75,74058.8,1.99,0.47,0.55,0,*78
1497765817.44,32979,14.75,74052.8,1.99,0.47,0.55,0,*79
1497765818.65,32980,14.75,74050.8,1.99,0.47,0.47,0,*7C
1497765819.9,32981,14.75,74046.8,2.01,0.47,0.47,0,*7F
1497765821.12,32982,14.75,74048.5,1.99,0.55,0.55,0,*7E
1497765822.34,32983,14.75,74048.3,1.99,0.47,0.55,0,*7C
1497765823.55,32984,14.75,74052.0,1.97,0.43,0.51,0,*75
1497765824.73,32985,14.75,74052.5,1.97,0.43,0.43,0,*77
1497765825.92,32986,14.75,74052.8,1.99,0.43,0.55,0,*7D
1497765827.11,32987,14.75,74042.0,1.99,0.43,0.47,0,*7F
1497765828.3,32988,14.75,74046.8,1.99,0.43,0.55,0,*73
1497765829.52,32989,14.75,74052.0,1.99,0.55,0.47,0,*76
1497765830.74,32990,14.75,74056.5,1.99,0.55,0.55,0,*7D
1497765831.92,32991,14.75,74054.5,1.97,0.43,0.43,0,*72
1497765833.15,32992,14.75,74058.0,1.99,0.55,0.55,0,*7F
1497765834.39,32993,14.75,74058.0,2.01,0.47,0.55,0,*7F
1497765835.61,32994,14.75,74052.8,1.99,0.47,0.55,0,*7A
1497765836.83,32995,14.75,74056.5,1.99,0.47,0.47,0,*78
1497765838.05,32996,14.75,74056.3,1.99,0.47,0.47,0,*7B
1497765839.26,32997,14.75,74054.8,1.97,0.43,0.51,0,*77
1497765840.48,32998,14.75,74050.5,1.99,0.47,0.55,0,*76
1497765841.7,32999,14.75,74050.0,1.99,0.47,0.55,0,*77
1497765842.92,33000,14.75,74056.3,1.99,0.55,0.55,0,*7C
1497765844.14,33001,14.75,74060.5,1.99,0.47,0.55,0,*7E
1497765845.36,33002,14.75,74060.3,1.99,0.47,0.55,0,*7D
1497765846.58,33003,14.75,74056.0,1.99,0.47,0.55,0,*7C
1497765847.76,33004,14.75,74070.5,1.99,0.43,0.51,0,*7B
1497765848.97,33005,14.75,74070.5,1.97,0.43,0.55,0,*70
1497765850.19,33006,14.75,74068.8,1.99,0.47,0.55,0,*79
1497765851.4,33007,14.75,74062.8,1.97,0.43,0.51,0,*76
1497765852.62,33008,14.75,74048.5,1.99,0.47,0.55,0,*77
1497765853.84,33009,14.75,74046.3,1.99,0.55,0.55,0,*75
1497765855.06,33010,14.75,74050.8,1.99,0.47,0.55,0,*7E
1497765856.28,33011,14.75,74048.5,1.99,0.47,0.55,0,*7F
1497765857.47,33012,14.75,74058.5,1.97,0.43,0.43,0,*71
1497765858.65,33013,14.75,74052.8,1.97,0.43,0.43,0,*70
1497765859.89,33014,14.75,74054.5,1.97,0.41,0.51,0,*76
1497765861.08,33015,14.75,74058.0,1.99,0.43,0.55,0,*7F
1497765862.29,33016,14.75,74058.3,1.97,0.37,0.43,0,*76
1497765863.47,33017,14.75,74050.3,1.99,0.43,0.55,0,*7D
1497765864.69,33018,14.75,74056.0,1.97,0.41,0.43,0,*79
1497765865.93,33019,14.75,74050.3,1.97,0.41,0.55,0,*7F
1497765867.14,33020,14.75,74050.3,1.97,0.43,0.51,0,*73
1497765868.32,33021,14.75,74058.0,1.99,0.43,0.47,0,*7B
1497765869.54,33022,14.75,74058.3,1.99,0.47,0.55,0,*7F
1497765870.76,33023,14.75,74052.8,1.97,0.41,0.43,0,*71
1497765872.0,33024,14.75,74058.8,1.97,0.41,0.51,0,*75
1497765873.23,33025,14.75,74056.5,1.97,0.41,0.51,0,*74
1497765874.42,33026,14.75,74058.8,1.99,0.41,0.43,0,*7A
1497765875.64,33027,14.75,74058.3,1.99,0.41,0.47,0,*7F
1497765876.82,33028,14.75,74068.5,1.97,0.43,0.43,0,*78
1497765878.03,33029,14.75,74064.8,1.97,0.43,0.51,0,*7A
1497765879.24,33030,14.75,74056.8,1.97,0.43,0.51,0,*72
1497765880.45,33031,14.75,74058.8,1.97,0.43,0.51,0,*73
1497765881.64,33032,14.75,74048.5,1.97,0.43,0.43,0,*73
1497765882.85,33033,14.75,74062.5,1.95,0.41,0.47,0,*76
1497765884.06,33034,14.75,74058.3,1.97,0.43,0.51,0,*76
1497765885.25,33035,14.75,74062.8,1.97,0.43,0.43,0,*74
1497765886.43,33036,14.75,74056.8,1.97,0.43,0.43,0,*77
1497765887.61,33037,14.75,74044.0,1.97,0.43,0.43,0,*76
1497765888.83,33038,14.75,74048.5,1.97,0.41,0.43,0,*7B
1497765890.04,33039,14.75,74050.3,1.97,0.41,0.43,0,*7A
1497765891.28,33040,14.75,74050.5,1.97,0.41,0.51,0,*77
1497765892.49,33041,14.75,74060.3,1.97,0.41,0.43,0,*75
1497765893.71,33042,14.75,74074.0,1.97,0.41,0.43,0,*76
1497765894.92,33043,14.75,74066.8,1.97,0.51,0.43,0,*76
1497765896.14,33044,14.75,74084.0,1.95,0.41,0.47,0,*76
1497765897.35,33045,14.75,74070.8,1.95,0.37,0.41,0,*70
1497765898.56,33046,14.75,74052.8,1.95,0.37,0.47,0,*75
1497765899.78,33047,14.75,74064.0,1.95,0.37,0.47,0,*74
1497765901.0,33048,14.75,74054.3,1.95,0.41,0.47,0,*7A
1497765902.21,33049,14.75,74062.8,1.95,0.41,0.47,0,*7B
1497765903.42,33050,14.75,74068.8,1.95,0.41,0.41,0,*75
1497765904.64,33051,14.75,74070.8,1.95,0.37,0.47,0,*73
1497765905.85,33052,14.75,74070.3,1.95,0.37,0.47,0,*70
1497765907.07,33053,14.75,74072.3,1.95,0.41,0.47,0,*70
1497765908.29,33054,14.75,74062.3,1.95,0.41,0.47,0,*77
1497765909.51,33055,14.75,74062.5,1.95,0.41,0.47,0,*76
1497765910.72,33056,14.75,74064.5,1.95,0.41,0.41,0,*73
1497765911.93,33057,14.75,74066.8,1.95,0.41,0.47,0,*74
1497765913.15,33058,14.75,74066.3,1.95,0.41,0.47,0,*7B
1497765914.37,33059,14.75,74068.0,1.95,0.41,0.47,0,*7A
1497765915.59,33060,14.75,74066.0,1.95,0.47,0.47,0,*76
1497765916.81,33061,14.75,74066.0,1.95,0.47,0.47,0,*77
1497765918.02,33062,14.75,74060.8,1.95,0.41,0.47,0,*72
1497765919.24,33063,14.75,74058.0,1.95,0.47,0.47,0,*75
1497765920.46,33064,14.75,74058.0,1.95,0.41,0.47,0,*74
1497765921.7,33065,14.75,74040.8,1.93,0.41,0.41,0,*75
1497765922.91,33066,14.75,74038.5,1.95,0.37,0.47,0,*77
1497765924.16,33067,14.75,74032.5,1.93,0.47,0.47,0,*77
1497765925.4,33068,14.75,74040.5,1.93,0.37,0.47,0,*7F
1497765926.62,33069,14.75,74044.5,1.95,0.41,0.47,0,*79
1497765927.83,33070,14.75,74058.0,1.95,0.41,0.37,0,*76
1497765929.05,33071,14.75,74056.8,1.95,0.37,0.47,0,*71
1497765930.26,33072,14.75,74058.8,1.95,0.37,0.41,0,*74
1497765931.47,33073,14.75,74066.0,1.95,0.41,0.47,0,*72
1497765932.72,33074,14.75,74064.8,1.93,0.41,0.47,0,*73
1497765933.93,33075,14.75,74058.0,1.95,0.37,0.47,0,*75
1497765935.15,33076,14.75,74056.3,1.95,0.47,0.47,0,*71
1497765936.37,33077,14.75,74062.5,1.95,0.37,0.47,0,*77
1497765937.61,33078,14.75,74066.5,1.93,0.37,0.47,0,*7E
1497765938.82,33079,14.75,74060.3,1.95,0.41,0.47,0,*78
1497765940.07,33080,14.75,74056.5,1.93,0.41,0.47,0,*78
1497765941.28,33081,14.75,74034.3,1.95,0.41,0.41,0,*79
1497765942.49,33082,14.75,74030.5,1.95,0.41,0.41,0,*7A
1497765943.73,33083,14.75,74038.0,1.93,0.41,0.47,0,*7B
1497765944.98,33084,14.75,74040.3,1.93,0.41,0.47,0,*7C
1497765946.19,33085,14.75,74048.8,1.95,0.41,0.47,0,*7B
1497765947.44,33086,14.75,74050.8,1.93,0.41,0.47,0,*7E
1497765948.68,33087,14.75,74050.3,1.93,0.41,0.47,0,*7F
1497765949.89,33088,14.75,74050.0,1.95,0.37,0.47,0,*77
1497765951.14,33089,14.75,74048.0,1.93,0.41,0.47,0,*71
1497765952.35,33090,14.75,74038.5,1.95,0.41,0.47,0,*7F
1497765953.6,33091,14.75,74036.8,1.93,0.41,0.47,0,*78
1497765954.83,33092,14.75,74036.5,1.93,0.37,0.41,0,*7C
1497765956.04,33093,14.75,74050.8,1.95,0.33,0.41,0,*7F
1497765957.28,33094,14.75,74054.5,1.93,0.37,0.47,0,*7C
1497765958.52,33095,14.75,74046.5,1.93,0.33,0.47,0,*79
1497765959.74,33096,14.75,74028.0,1.95,0.37,0.47,0,*78
1497765960.98,33097,14.75,74032.0,1.93,0.47,0.47,0,*78
1497765962.22,33098,14.75,74040.3,1.93,0.41,0.47,0,*71
1497765963.44,33099,14.75,74048.5,1.95,0.41,0.41,0,*70
1497765964.68,33100,14.75,74044.5,1.93,0.41,0.47,0,*71
1497765965.92,33101,14.75,74046.0,1.93,0.41,0.47,0,*70
1497765967.14,33102,14.75,74050.0,1.95,0.47,0.47,0,*73
1497765968.39,33103,14.75,74044.5,1.93,0.47,0.47,0,*74
1497765969.6,33104,14.75,74050.0,1.95,0.41,0.47,0,*73
1497765970.84,33105,14.75,74046.0,1.93,0.41,0.41,0,*72
1497765972.08,33106,14.75,74044.5,1.93,0.41,0.47,0,*77
1497765973.33,33107,14.75,74054.5,1.93,0.41,0.47,0,*76
1497765974.54,33108,14.75,74046.8,1.95,0.41,0.47,0,*7F
1497765975.76,33109,14.75,74038.0,1.95,0.41,0.47,0,*7E
1497765977.0,33110,14.75,74040.0,1.93,0.37,0.47,0,*71
1497765978.24,33111,14.75,74040.5,1.93,0.37,0.47,0,*70
1497765979.49,33112,14.75,74050.0,1.93,0.47,0.47,0,*74
1497765980.72,33113,14.75,74048.3,1.93,0.37,0.41,0,*74
1497765981.97,33114,14.75,74048.3,1.93,0.41,0.47,0,*74
1497765983.21,33115,14.75,74038.3,1.93,0.41,0.47,0,*75
1497765984.45,33116,14.75,74010.8,1.93,0.41,0.47,0,*76
1497765985.69,33117,14.75,74000.8,1.93,0.37,0.41,0,*70
1497765986.93,33118,14.75,73990.0,1.93,0.33,0.47,0,*7D
1497765988.14,33119,14.75,73994.5,1.95,0.41,0.47,0,*7F
1497765989.38,33120,14.75,73994.8,1.93,0.33,0.41,0,*70
1497765990.61,33121,14.75,73996.0,1.93,0.33,0.41,0,*71
1497765991.85,33122,14.75,74002.8,1.93,0.33,0.37,0,*73
1497765993.09,33123,14.75,73994.0,1.93,0.41,0.47,0,*70
1497765994.33,33124,14.75,74000.8,1.93,0.33,0.41,0,*74
1497765995.49,33125,14.75,73996.5,1.91,0.43,0.43,0,*72
1497765996.68,33126,14.75,74000.3,1.91,0.33,0.43,0,*76
1497765997.87,33127,14.75,74008.5,1.91,0.33,0.43,0,*77
1497765999.08,33128,14.75,73988.8,1.89,0.37,0.43,0,*75
1497766000.25,33129,14.75,74000.8,1.91,0.43,0.43,0,*7E
1497766001.44,33130,14.75,74008.3,1.91,0.37,0.43,0,*75
1497766002.63,33131,14.75,74002.0,1.91,0.37,0.43,0,*74
1497766003.79,33132,14.75,73988.5,1.91,0.43,0.43,0,*74
1497766005.04,33133,14.75,74010.5,1.93,0.41,0.47,0,*71
1497766006.22,33134,14.75,74024.0,1.91,0.33,0.43,0,*75
1497766007.44,33135,14.75,74028.5,1.91,0.29,0.37,0,*7C
1497766008.63,33136,14.75,74024.5,1.91,0.33,0.43,0,*77
1497766009.85,33137,14.75,73992.3,1.91,0.37,0.37,0,*71
1497766011.06,33138,14.75,73996.0,1.89,0.37,0.43,0,*74
1497766012.22,33139,14.75,73988.5,1.91,0.43,0.43,0,*7F
1497766013.41,33140,14.75,74012.0,1.91,0.43,0.47,0,*75
1497766014.63,33141,14.75,74008.5,1.91,0.37,0.37,0,*70
1497766015.82,33142,14.75,74002.5,1.91,0.37,0.43,0,*70
1497766017.0,33143,14.75,73992.3,1.89,0.43,0.43,0,*7B
1497766018.19,33144,14.75,74014.0,1.91,0.33,0.43,0,*72
1497766019.4,33145,14.75,74016.5,1.91,0.33,0.37,0,*70
1497766020.62,33146,14.75,74000.0,1.91,0.37,0.37,0,*77
1497766021.83,33147,14.75,73980.5,1.91,0.37,0.37,0,*76
1497766023.05,33148,14.75,74006.8,1.91,0.29,0.29,0,*79
1497766024.29,33149,14.75,74010.0,1.93,0.41,0.41,0,*7A
1497766025.48,33150,14.75,74012.0,1.91,0.33,0.43,0,*77
1497766026.69,33151,14.75,74026.3,1.89,0.37,0.43,0,*7B
1497766027.88,33152,14.75,74014.5,1.91,0.37,0.43,0,*71
1497766029.07,33153,14.75,74026.8,1.91,0.37,0.43,0,*70
1497766030.32,33154,14.75,74020.8,1.93,0.47,0.51,0,*71
1497766031.51,33155,14.75,74020.3,1.91,0.43,0.47,0,*71
1497766032.7,33156,14.75,74024.3,1.91,0.43,0.47,0,*72
1497766033.89,33157,14.75,74032.5,1.91,0.43,0.47,0,*73
1497766035.08,33158,14.75,74024.8,1.91,0.37,0.43,0,*7B
1497766036.26,33159,14.75,74018.3,1.91,0.43,0.37,0,*7A
1497766037.43,33160,14.75,74020.5,1.91,0.43,0.43,0,*73
1497766038.62,33161,14.75,74022.0,1.91,0.37,0.43,0,*71
1497766039.81,33162,14.75,74024.5,1.91,0.37,0.43,0,*72
1497766041.0,33163,14.75,74026.8,1.91,0.37,0.43,0,*73
1497766042.21,33164,14.75,74004.3,1.89,0.37,0.43,0,*7D
1497766043.4,33165,14.75,73992.8,1.91,0.41,0.43,0,*74
1497766044.62,33166,14.75,74016.8,1.89,0.37,0.43,0,*7F
1497766045.83,33167,14.75,74026.5,1.91,0.37,0.37,0,*74
1497766047.04,33168,14.75,74034.3,1.89,0.37,0.43,0,*71
1497766048.23,33169,14.75,74042.3,1.89,0.43,0.43,0,*73
1497766049.43,33170,14.75,74024.3,1.89,0.43,0.37,0,*78
1497766050.63,33171,14.75,74020.5,1.91,0.33,0.43,0,*74
1497766051.82,33172,14.75,74012.8,1.91,0.37,0.43,0,*73
1497766053.01,33173,14.75,74014.5,1.91,0.37,0.43,0,*72
1497766054.22,33174,14.75,74018.5,1.91,0.33,0.37,0,*72
1497766055.41,33175,14.75,74020.8,1.91,0.37,0.43,0,*74
1497766056.6,33176,14.75,74030.8,1.91,0.37,0.43,0,*77
1497766057.81,33177,14.75,74036.0,1.89,0.37,0.43,0,*7F
1497766059.01,33178,14.75,74030.5,1.91,0.37,0.43,0,*79
1497766060.2,33179,14.75,74022.3,1.91,0.37,0.43,0,*78
1497766061.38,33180,14.75,74026.5,1.89,0.43,0.43,0,*74
1497766062.59,33181,14.75,74038.8,1.89,0.37,0.43,0,*76
1497766063.83,33182,14.75,74044.0,1.89,0.37,0.37,0,*76
1497766065.06,33183,14.75,74052.3,1.89,0.29,0.33,0,*7C
1497766066.27,33184,14.75,74052.0,1.89,0.37,0.43,0,*73
1497766067.46,33185,14.75,74044.5,1.89,0.43,0.43,0,*71
1497766068.64,33186,14.75,74042.8,1.89,0.43,0.43,0,*72
1497766069.83,33187,14.75,74036.5,1.89,0.43,0.43,0,*73
1497766071.01,33188,14.75,74038.0,1.89,0.43,0.43,0,*7C
1497766072.22,33189,14.75,74024.0,1.89,0.43,0.47,0,*79
1497766073.43,33190,14.75,74032.3,1.89,0.43,0.47,0,*71
1497766074.64,33191,14.75,74034.0,1.89,0.37,0.43,0,*77
1497766075.83,33192,14.75,74026.0,1.89,0.43,0.43,0,*77
1497766077.01,33193,14.75,74028.3,1.89,0.43,0.43,0,*76
1497766078.2,33194,14.75,74036.5,1.89,0.43,0.43,0,*71
1497766079.41,33195,14.75,74032.3,1.89,0.37,0.43,0,*73
1497766080.57,33196,14.75,74030.3,1.91,0.43,0.43,0,*7A
1497766081.76,33197,14.75,74036.8,1.91,0.29,0.43,0,*77
1497766083.0,33198,14.75,74052.5,1.89,0.29,0.37,0,*72
1497766084.23,33199,14.75,74056.8,1.89,0.29,0.33,0,*77
1497766085.44,33200,14.75,74054.8,1.89,0.33,0.43,0,*78
1497766086.68,33201,14.75,74056.5,1.89,0.29,0.29,0,*7E
1497766087.89,33202,14.75,74050.3,1.89,0.33,0.43,0,*7A
1497766089.08,33203,14.75,74056.5,1.89,0.43,0.43,0,*7C
1497766090.24,33204,14.75,74058.3,1.91,0.43,0.43,0,*72
1497766091.43,33205,14.75,74048.5,1.89,0.43,0.43,0,*7A
1497766092.59,33206,14.75,74054.0,1.91,0.43,0.43,0,*70
1497766093.75,33207,14.75,74046.5,1.91,0.43,0.43,0,*71
1497766094.96,33208,14.75,74034.5,1.89,0.37,0.43,0,*74
1497766096.2,33209,14.75,74036.5,1.89,0.37,0.47,0,*71
1497766097.41,33210,14.75,74042.3,1.89,0.43,0.47,0,*7A
1497766098.65,33211,14.75,74036.3,1.89,0.37,0.47,0,*78
1497766099.86,33212,14.75,74032.5,1.89,0.43,0.47,0,*78
1497766101.07,33213,14.75,74026.0,1.89,0.43,0.47,0,*79
1497766102.23,33214,14.75,74032.0,1.91,0.43,0.43,0,*73
1497766103.47,33215,14.75,74032.3,1.89,0.37,0.37,0,*7B
1497766104.7,33216,14.75,74038.5,1.89,0.33,0.37,0,*7C
1497766105.94,33217,14.75,74028.0,1.89,0.33,0.37,0,*7D
1497766107.13,33218,14.75,74034.5,1.91,0.33,0.43,0,*78
1497766108.31,33219,14.75,74040.3,1.89,0.43,0.43,0,*77
1497766109.52,33220,14.75,74048.3,1.89,0.37,0.43,0,*7E
1497766110.71,33221,14.75,74042.8,1.89,0.43,0.43,0,*7C
1497766111.94,33222,14.75,74040.8,1.89,0.33,0.33,0,*7F
1497766113.15,33223,14.75,74042.0,1.89,0.37,0.43,0,*7D
1497766114.39,33224,14.75,74038.3,1.85,0.29,0.33,0,*7E
1497766115.62,33225,14.75,74044.3,1.85,0.25,0.33,0,*73
1497766116.86,33226,14.75,74054.0,1.85,0.25,0.29,0,*7B
1497766118.09,33227,14.75,74048.3,1.85,0.29,0.25,0,*7A
1497766119.33,33228,14.75,74046.5,1.85,0.25,0.33,0,*7E
1497766120.53,33229,14.81,74054.5,1.83,0.33,0.41,0,*7B
1497766121.77,33230,14.75,74052.3,1.85,0.33,0.41,0,*75
1497766123.0,33231,14.75,74048.5,1.85,0.41,0.41,0,*71
1497766124.23,33232,14.75,74054.8,1.85,0.33,0.33,0,*72
1497766125.46,33233,14.75,74054.8,1.85,0.33,0.33,0,*73
1497766126.7,33234,14.75,74064.8,1.85,0.29,0.41,0,*7A
1497766127.93,33235,14.75,74066.5,1.85,0.41,0.41,0,*75
1497766129.17,33236,14.75,74066.5,1.85,0.41,0.41,0,*76
1497766130.4,33237,14.75,74064.8,1.85,0.33,0.33,0,*77